Regional Weather Roundup
Issued by NWS

Home | Current Version | Previous Version | Graphics & Text | Print | Product List | Glossary Off
Versions: 1 2 3 4 5 6 7 8 9 10 11 12 13 14 15 16 17 18 19 20 21 22 23 24 25 26 27 28 29 30 31 32 33 34 35 36 37 38 39 40 41 42 43 44 45 46 47 48 49 50

000
ASUS43 KDMX 180807
RWRIA

WEATHER ROUNDUP FOR IOWA
NATIONAL WEATHER SERVICE DES MOINES IA
300 AM CDT THU SEP 18 2014

NOTE: "FAIR" INDICATES FEW OR NO CLOUDS BELOW 12,000 FEET WITH NO
SIGNIFICANT WEATHER AND/OR OBSTRUCTIONS TO VISIBILITY.

* - THESE STATIONS ARE NOT NWS STATIONS...THUS NOT UNDER NWS
QUALITY CONTROL.  THEY ALSO DO NOT REPORT WEATHER SUCH
AS PRECIPITATION OR FOG.

IAZ001>003-012>014-020>022-031>034-043>046-180900-
   NORTHWEST IOWA

CITY           SKY/WX    TMP DP  RH WIND       PRES   REMARKS
CARROLL *      PTCLDY    48  48 100 CALM      30.01S FOG
CHEROKEE *     CLEAR     55  54  94 CALM      30.00S
DENISON *      PTCLDY    59  57  94 E6        29.98F
LE MARS *      CLEAR     57  55  94 CALM      29.98F
ORANGE CITY *  CLEAR     59  54  82 S3        29.99F
SHELDON *      PTCLDY    55  54  94 E5        29.99S
SIOUX CITY     PTCLDY    59  56  89 SE6       29.98S
SPENCER        CLEAR     50  48  93 E5        30.01F
STORM LAKE *   CLEAR     54  54 100 SE6       30.00F
$$

IAZ055>058-069>071-079>083-090>094-180900-
   SOUTHWEST IOWA

CITY           SKY/WX    TMP DP  RH WIND       PRES   REMARKS
ATLANTIC *     PTCLDY    54  54 100 NE5       29.99F FOG
AUDUBON *      CLEAR     48  45  87 CALM      30.01F
CLARINDA *     MOCLDY    59  59 100 CALM      30.00R
COUNCIL BLFS * CLEAR     61  61 100 SE7       29.97F
CRESTON *      CLOUDY    54  54 100 E5        30.01S FOG
HARLAN  *      CLEAR     55  55 100 CALM      30.03F
LAMONI         FOG       58  57  97 E3        30.00S VSB 1/4
SHENANDOAH *   CLEAR     61  59  94 E3        29.99R
$$

IAZ047>049-059>061-072>074-084-180900-
   CENTRAL IOWA

CITY           SKY/WX    TMP DP  RH WIND       PRES   REMARKS
AMES           PTCLDY    52  51  97 CALM      30.02F FOG
ANKENY *       CLEAR     52  52 100 N3        30.02S
CHARITON *     PTCLDY    55  54  94 SE3       30.01S FOG
DES MOINES     PTCLDY    58  55  90 E3        30.01F
GRINNELL*      CLEAR     52  50  93 CALM      30.04S
KNOXVILLE *    PTCLDY    55  54  94 SE6       30.01S
MARSHALLTOWN   PTCLDY    51  50  96 SE3       30.03S FOG
PELLA *        PTCLDY    55  54  94 E3        30.03S
PERRY *          N/A     54  52  94 E3        30.02S FOG
$$

IAZ004>006-015-016-023>025-035-036-180900-
   NORTH CENTRAL IOWA

CITY           SKY/WX    TMP DP  RH WIND       PRES   REMARKS
ALGONA *       PTCLDY    54  52  94 CALM      30.03S
CLARION *        N/A     52  52 100 SE3       30.03S
ESTHERVILLE    MOCLDY    52  50  93 SE6       30.01F
FORT DODGE *   MOCLDY    52  50  93 E5        30.03S
MASON CITY     CLEAR     46  45  96 CALM      30.05S
FOREST CITY *  CLEAR     50  50 100 CALM      30.04S
IOWA FALLS *     N/A     52  50  93 CALM      30.04S
$$

IAZ007>011-017>019-026>030-037>042-050>054-066-180900-
   NORTHEAST IOWA

CITY           SKY/WX    TMP DP  RH WIND       PRES   REMARKS
CEDAR RAPIDS   CLEAR     50  50 100 SE3       30.03S FOG
CHARLES CITY * CLEAR     48  46  93 SE5       30.05S
CLINTON *      CLEAR     46  43  87 NE3       30.07S
DECORAH *      PTCLDY    50  48  93 CALM      30.04S
DUBUQUE        PTCLDY    48  46  93 CALM      30.05S
MONTICELLO *   FOG       45  45 100 CALM      30.04S VSB 1/4
OELWEIN *      CLEAR     52  50  93 SE5       30.05S
WATERLOO       CLEAR     49  46  90 CALM      30.04R
$$

IAZ064-065-067-068-078-180900-
   EAST CENTRAL IOWA

CITY           SKY/WX    TMP DP  RH WIND       PRES   REMARKS
DAVENPORT      CLEAR     48  46  93 NE3       30.05S
IOWA CITY      CLEAR     49  48  97 CALM      30.05S
MT. PLEASANT * CLEAR     48  46  93 E3        30.03S FOG
MUSCATINE *    FOG       50  48  93 CALM      30.05R VSB 0
QUAD CITIES    PTCLDY    48  46  93 CALM      30.04S
$$

IAZ062-063-075>077-085>089-095>099-180900-
   SOUTHEAST IOWA

CITY           SKY/WX    TMP DP  RH WIND       PRES   REMARKS
BURLINGTON     CLEAR     49  48  97 N3        30.03S FOG
FAIRFIELD *    CLEAR     50  48  93 CALM      30.03S
FORT MADISON * FOG       50  48  93 CALM      30.03S VSB 1/2
KEOKUK *       CLEAR     50  50 100 CALM      30.01F FOG
OSKALOOSA *      N/A     52  50  93 SE3       30.03S
CENTERVILLE *  CLEAR     54  54 100 E3        30.02F FOG
OTTUMWA        CLEAR     51  49  92 E3        30.02S
WASHINGTON *   CLEAR     48  48 100 E5        30.04R FOG
$$

ABBREVIATIONS USED IN REMARKS
   TC - TEMPERATURES IN CELSIUS
  WCI - WIND CHILL INDEX
   HX - HEAT INDEX
  VSB - VISIBILITY
$$




USA.gov is the U.S. government's official web portal to all federal, state and local government web resources and services.